GSAT-29

Last updated on Fri Dec 19 2025 00:02:52 GMT+0000 (Coordinated Universal Time)

1 43698U 18089A 25352.58541148 .00000110 00000+0 00000+0 0 9999 2 43698 0.0806 267.5349 0003645 337.5684 108.1201 1.00272079 25970
UTC large
Height (km)
Speed (km/s)
/
Latitude / Longitude
Inclination (degrees)
Orbital Period (minutes)
Azimuth
Elevation
Range (km)
Doppler Factor

Next 0 passes for location: London (51.5072 / 0.1276)

Sorry there are no passes over London.